Regional Weather Roundup
Issued by NWS Sioux Falls, SD

Home | Current Version | Previous Version | Text Only | Print | Product List | Glossary Off
Versions: 1 2 3 4 5 6 7 8 9 10 11 12 13 14 15 16 17 18 19 20 21 22 23 24 25 26 27 28 29 30 31 32 33 34 35 36 37 38 39 40 41 42 43 44 45 46 47 48 49 50

000
ASUS43 KFSD 281702
RWRFSD

WEATHER ROUNDUP FOR SE SOUTH DAKOTA/SW MINNESOTA/NW IOWA
NATIONAL WEATHER SERVICE SIOUX FALLS SD
1200 PM CDT MON JUL 28 2014

NOTE: "FAIR" INDICATES FEW OR NO CLOUDS BELOW 12,000 FEET WITH NO
SIGNIFICANT WEATHER AND OR OBSTRUCTIONS TO VISIBILITY.


SDZ038>040-050-052>070-281800-
SOUTHEAST SOUTH DAKOTA

CITY           SKY/WX    TMP DP  RH WIND       PRES   REMARKS
CHAMBERLAIN    SUNNY     70  52  53 N7        30.32F
HURON          PTSUNNY   69  54  58 N12       30.29F
MADISON        PTSUNNY   66  55  68 N15       30.29S
MITCHELL       MOSUNNY   69  55  60 N9        30.30F
SIOUX FALLS    PTSUNNY   69  58  67 NW16      30.27S
WINNER         FAIR      73  50  44 NW7       30.32F
YANKTON          N/A    N/A N/A N/A MISG        N/A
$$

MNZ071-072-080-081-089-090-097-098-281800-
SOUTHWEST MINNESOTA

CITY           SKY/WX    TMP DP  RH WIND       PRES   REMARKS
FAIRMONT       PTSUNNY   66  55  68 NW5       30.24S
JACKSON        CLOUDY    70  57  64 VRB6      30.25S
LUVERNE        PTSUNNY   70  55  60 NE9G16    30.26F
MARSHALL       MOSUNNY   68  57  68 NW8       30.25F
MONTEVIDEO     CLOUDY    72  59  64 N9        30.26S
PIPESTONE      MOSUNNY   70  55  60 NE13      30.27S
REDWOOD FALLS  MOSUNNY   74  55  51 N7        30.23F
TRACY          CLOUDY    69  60  72 CALM      30.26S
WINDOM         PTSUNNY   70  57  64 N8        30.25F
WORTHINGTON    CLOUDY    66  57  72 N9        30.27S
$$

IAZ001>003-012>014-020>022-031-032-NEZ013-014-SDZ071-281800-
NORTHWEST IOWA

CITY           SKY/WX    TMP DP  RH WIND       PRES   REMARKS
CHEROKEE       CLOUDY    65  61  85 N6        30.27S
DENISON        CLOUDY    68  61  77 NW7       30.24S
ESTHERVILLE    CLOUDY    66  57  72 N7        30.24F
LE MARS        MOSUNNY   70  59  68 NE9G17    30.27S
ORANGE CITY    PTSUNNY   66  57  72 NW6       30.27S
SHELDON        MOSUNNY   70  59  68 N9        30.25S
SIOUX CITY     PTSUNNY   71  56  58 N9G18     30.26S
SPENCER        PTSUNNY   70  58  65 N7        30.25F
STORM LAKE     CLOUDY    66  63  88 VRB6      30.27R
$$

ABBREVIATIONS USED IN REMARKS
   TC - TEMPERATURE IN CELSIUS
  WCI - WIND CHILL INDEX
   HX - HEAT INDEX
  VSB - VISIBILITY




USA.gov is the U.S. government's official web portal to all federal, state and local government web resources and services.